User: anonymous   Login
Location: Caltech
(34.1382°N, 118.1253°W)
Time: 00:48:14
(UTC-07:00)
Language:

JAS-2 - Orbit

View from above orbital plane
View from above orbital plane
View from above satellite
View from above satellite

Ground track
Ground track

The orbit data is extracted from the following two-line orbital elements,

1 24278U 96046B   16151.79282698 -.00000017  00000-0  21293-4 0  9993
2 24278  98.5855  79.2828 0349423 247.6034 108.7741 13.53067774977163
Epoch (UTC): 30 May 2016 19:01:40
Eccentricity: 0.0349423
inclination: 98.5855°
perigee height: 801 km
apogee height: 1321 km
right ascension of ascending node: 79.2828°
argument of perigee: 247.6034°
revolutions per day: 13.53067774
mean anomaly at epoch: 108.7741°
orbit number at epoch: 97716

The dashed part of the orbit path shows where the satellite is in the earth's shadow,  

DLR